| time (UTC) | temp C | wind direction | speed KPH | gust KPH | rain 1hr cm | rain 24hr cm | rain mn cm | humidity % | barometer mb |
| 20260905234553 | 21 | 71 | 3.2 | 11.3 | 0.00 | 0.03 | 0.00 | 53 | 1015.3 |
| 20260905233043 | 22 | 286 | 4.8 | 12.9 | 0.00 | 0.03 | 0.00 | 49 | 1015.4 |
| 20260905231553 | 22 | 287 | 1.6 | 11.3 | 0.00 | 0.03 | 0.00 | 46 | 1015.5 |
| 20260905230049 | 22 | 343 | 4.8 | 16.1 | 0.00 | 0.03 | 0.00 | 46 | 1015.5 |
| 20260905224553 | 22 | 5 | 4.8 | 12.9 | 0.00 | 0.05 | 0.00 | 48 | 1015.6 |
| 20260905223053 | 22 | 278 | 3.2 | 9.7 | 0.00 | 0.05 | 0.00 | 51 | 1015.6 |
| 20260905221553 | 21 | 304 | 1.6 | 6.4 | 0.00 | 0.05 | 0.00 | 48 | 1015.7 |
| 20260905220056 | 21 | 140 | 1.6 | 8.0 | 0.00 | 0.05 | 0.00 | 48 | 1015.8 |
| 20260905214600 | 21 | 0 | 3.2 | 11.3 | 0.00 | 0.05 | 0.00 | 48 | 1015.9 |
| 20260905213054 | 21 | 272 | 1.6 | 8.0 | 0.00 | 0.05 | 0.00 | 49 | 1016.0 |
| 20260905211556 | 21 | 0 | 0.0 | 9.7 | 0.00 | 0.05 | 0.00 | 52 | 1015.9 |
| 20260905210052 | 21 | 217 | 4.8 | 12.9 | 0.00 | 0.05 | 0.00 | 52 | 1016.0 |
| 20260905204558 | 22 | 242 | 3.2 | 11.3 | 0.00 | 0.05 | 0.00 | 52 | 1016.3 |
| 20260905203057 | 20 | 172 | 1.6 | 11.3 | 0.00 | 0.05 | 0.00 | 58 | 1016.4 |
| 20260905201552 | 20 | 306 | 6.4 | 12.9 | 0.00 | 0.05 | 0.00 | 60 | 1016.5 |
| 20260905200100 | 19 | 314 | 3.2 | 9.7 | 0.00 | 0.05 | 0.00 | 63 | 1016.4 |
| 20260905194549 | 19 | 253 | 4.8 | 12.9 | 0.00 | 0.05 | 0.00 | 65 | 1016.5 |
| 20260905193107 | 18 | 255 | 3.2 | 11.3 | 0.00 | 0.05 | 0.00 | 68 | 1016.7 |
| 20260905191558 | 18 | 29 | 1.6 | 11.3 | 0.00 | 0.05 | 0.00 | 68 | 1016.9 |
| 20260905190100 | 17 | 334 | 1.6 | 12.9 | 0.00 | 0.05 | 0.00 | 67 | 1017.1 |
| 20260905184555 | 17 | 335 | 1.6 | 8.0 | 0.00 | 0.05 | 0.00 | 73 | 1017.2 |
| 20260905183058 | 17 | 278 | 4.8 | 12.9 | 0.00 | 0.05 | 0.00 | 74 | 1017.4 |
| 20260905181554 | 17 | 253 | 1.6 | 8.0 | 0.00 | 0.05 | 0.00 | 75 | 1017.6 |
| 20260905180108 | 17 | 0 | 6.4 | 9.7 | 0.00 | 0.05 | 0.00 | 74 | 1017.5 |
| 20260905174558 | 16 | 0 | 3.2 | 9.7 | 0.00 | 0.05 | 0.00 | 76 | 1017.5 |
| 20260905173052 | 16 | 74 | 1.6 | 4.8 | 0.00 | 0.05 | 0.00 | 87 | 1017.6 |
| 20260905171559 | 13 | 0 | 0.0 | 0.0 | 0.00 | 0.05 | 0.00 | 89 | 1017.7 |
| 20260905170058 | 13 | 0 | 0.0 | 0.0 | 0.00 | 0.05 | 0.00 | 90 | 1017.7 |
| 20260905164555 | 13 | 0 | 0.0 | 0.0 | 0.00 | 0.05 | 0.00 | 91 | 1017.7 |
| 20260905163101 | 12 | 0 | 0.0 | 0.0 | 0.00 | 0.05 | 0.00 | 91 | 1017.7 |
| 20260905161558 | 12 | 0 | 0.0 | 3.2 | 0.00 | 0.05 | 0.00 | 92 | 1017.7 |
| 20260905160058 | 12 | 0 | 0.0 | 0.0 | 0.00 | 0.05 | 0.00 | 92 | 1017.7 |
| 20260905154556 | 11 | 0 | 0.0 | 0.0 | 0.00 | 0.05 | 0.00 | 92 | 1017.8 |
| 20260905153058 | 11 | 0 | 0.0 | 0.0 | 0.00 | 0.05 | 0.00 | 93 | 1017.8 |
| 20260905151554 | 11 | 0 | 0.0 | 0.0 | 0.00 | 0.05 | 0.00 | 93 | 1017.8 |
| 20260905150058 | 11 | 0 | 0.0 | 4.8 | 0.00 | 0.05 | 0.00 | 93 | 1017.9 |
| 20260905144602 | 11 | 0 | 0.0 | 0.0 | 0.00 | 0.05 | 0.00 | 93 | 1017.7 |
| 20260905143056 | 10 | 0 | 0.0 | 0.0 | 0.00 | 0.05 | 0.00 | 93 | 1017.6 |
| 20260905141550 | 10 | 0 | 0.0 | 0.0 | 0.00 | 0.05 | 0.00 | 93 | 1017.6 |
| 20260905140100 | 10 | 0 | 0.0 | 0.0 | 0.00 | 0.05 | 0.00 | 92 | 1017.6 |
| 20260905134558 | 10 | 0 | 0.0 | 0.0 | 0.00 | 0.05 | 0.00 | 92 | 1017.4 |
| 20260905133052 | 11 | 0 | 0.0 | 0.0 | 0.00 | 0.05 | 0.00 | 91 | 1017.4 |
| 20260905131552 | 11 | 0 | 0.0 | 0.0 | 0.00 | 0.05 | 0.00 | 91 | 1017.3 |
| 20260905130053 | 11 | 0 | 0.0 | 0.0 | 0.00 | 0.05 | 0.00 | 91 | 1017.2 |
| 20260905124553 | 11 | 0 | 0.0 | 0.0 | 0.00 | 0.13 | 0.00 | 91 | 1017.2 |
| 20260905123052 | 11 | 0 | 0.0 | 0.0 | 0.00 | 0.13 | 0.00 | 91 | 1017.2 |
| 20260905121555 | 11 | 0 | 0.0 | 0.0 | 0.00 | 0.13 | 0.00 | 92 | 1017.2 |
| 20260905114552 | 11 | 0 | 0.0 | 4.8 | 0.00 | 0.18 | 0.00 | 92 | 1017.2 |
| 20260905113054 | 11 | 170 | 0.0 | 4.8 | 0.00 | 0.18 | 0.00 | 92 | 1017.1 |
| 20260905111645 | 11 | 0 | 0.0 | 3.2 | 0.00 | 0.18 | 0.00 | 92 | 1017.0 |
| 20260905110052 | 11 | 0 | 0.0 | 3.2 | 0.00 | 0.18 | 0.00 | 92 | 1017.0 |
| 20260905104547 | 11 | 0 | 0.0 | 1.6 | 0.00 | 0.18 | 0.00 | 92 | 1017.2 |
| 20260905103055 | 11 | 165 | 1.6 | 3.2 | 0.00 | 0.18 | 0.00 | 92 | 1017.2 |
| 20260905101553 | 11 | 0 | 0.0 | 1.6 | 0.00 | 0.18 | 0.00 | 92 | 1017.1 |
| 20260905100106 | 11 | 166 | 1.6 | 6.4 | 0.00 | 0.18 | 0.00 | 92 | 1017.0 |
| 20260905094553 | 11 | 0 | 0.0 | 0.0 | 0.00 | 0.18 | 0.00 | 91 | 1017.0 |
| 20260905093059 | 11 | 0 | 0.0 | 0.0 | 0.00 | 0.18 | 0.00 | 91 | 1017.0 |
| 20260905091600 | 11 | 0 | 0.0 | 0.0 | 0.00 | 0.18 | 0.00 | 91 | 1016.9 |
| 20260905090047 | 11 | 0 | 0.0 | 1.6 | 0.00 | 0.18 | 0.00 | 91 | 1016.8 |
| 20260905084553 | 12 | 172 | 1.6 | 3.2 | 0.00 | 0.18 | 0.00 | 91 | 1016.8 |
| 20260905083051 | 12 | 0 | 0.0 | 3.2 | 0.00 | 0.18 | 0.00 | 90 | 1016.8 |
| 20260905081559 | 12 | 0 | 0.0 | 1.6 | 0.00 | 0.18 | 0.00 | 90 | 1016.6 |
| 20260905080057 | 12 | 0 | 0.0 | 1.6 | 0.00 | 0.18 | 0.00 | 91 | 1016.6 |
| 20260905074544 | 12 | 0 | 0.0 | 0.0 | 0.00 | 0.20 | 0.00 | 90 | 1016.7 |
| 20260905073058 | 12 | 0 | 0.0 | 0.0 | 0.00 | 0.20 | 0.00 | 90 | 1016.7 |
| 20260905071556 | 12 | 0 | 0.0 | 0.0 | 0.00 | 0.20 | 0.00 | 90 | 1016.5 |
| 20260905070056 | 12 | 0 | 0.0 | 1.6 | 0.00 | 0.20 | 0.00 | 90 | 1016.5 |
| 20260905064555 | 12 | 172 | 1.6 | 4.8 | 0.00 | 0.20 | 0.20 | 89 | 1016.4 |
| 20260905063101 | 12 | 0 | 0.0 | 1.6 | 0.00 | 0.20 | 0.20 | 89 | 1016.2 |
| 20260905061610 | 12 | 0 | 0.0 | 4.8 | 0.00 | 0.20 | 0.20 | 90 | 1016.1 |
| 20260905060056 | 12 | 0 | 0.0 | 4.8 | 0.00 | 0.20 | 0.20 | 91 | 1016.0 |
| 20260905054547 | 12 | 130 | 1.6 | 4.8 | 0.00 | 0.20 | 0.20 | 91 | 1016.0 |
| 20260905053101 | 12 | 150 | 0.0 | 4.8 | 0.00 | 0.20 | 0.20 | 92 | 1015.9 |
| 20260905051550 | 12 | 153 | 0.0 | 4.8 | 0.00 | 0.20 | 0.20 | 92 | 1015.9 |
| 20260905050058 | 12 | 167 | 3.2 | 6.4 | 0.00 | 0.20 | 0.20 | 91 | 1015.8 |
| 20260905044550 | 12 | 0 | 0.0 | 4.8 | 0.00 | 0.20 | 0.20 | 91 | 1015.8 |
| 20260905043055 | 12 | 0 | 0.0 | 0.0 | 0.00 | 0.20 | 0.20 | 91 | 1015.9 |
| 20260905041554 | 12 | 0 | 0.0 | 0.0 | 0.00 | 0.20 | 0.20 | 91 | 1015.8 |
| 20260905040050 | 13 | 0 | 0.0 | 0.0 | 0.00 | 0.20 | 0.20 | 91 | 1015.7 |
| 20260905034554 | 13 | 0 | 0.0 | 0.0 | 0.00 | 0.20 | 0.20 | 91 | 1015.5 |
| 20260905033053 | 13 | 0 | 0.0 | 0.0 | 0.00 | 0.20 | 0.20 | 90 | 1015.4 |
| 20260905031552 | 13 | 0 | 0.0 | 0.0 | 0.00 | 0.20 | 0.20 | 90 | 1015.3 |
| 20260905030058 | 13 | 0 | 0.0 | 0.0 | 0.00 | 0.20 | 0.20 | 89 | 1015.1 |
| 20260905024555 | 13 | 0 | 0.0 | 0.0 | 0.00 | 0.20 | 0.20 | 88 | 1015.1 |
| 20260905023054 | 13 | 0 | 0.0 | 0.0 | 0.00 | 0.20 | 0.20 | 87 | 1015.2 |
| 20260905021549 | 14 | 0 | 0.0 | 0.0 | 0.00 | 0.20 | 0.20 | 86 | 1015.2 |
| 20260905020106 | 14 | 0 | 0.0 | 0.0 | 0.00 | 0.20 | 0.20 | 84 | 1015.0 |
| 20260905014553 | 14 | 0 | 0.0 | 0.0 | 0.00 | 0.20 | 0.20 | 84 | 1014.8 |
| 20260905013047 | 15 | 0 | 0.0 | 1.6 | 0.00 | 0.20 | 0.20 | 81 | 1014.8 |
| 20260905011545 | 15 | 0 | 0.0 | 1.6 | 0.00 | 0.20 | 0.20 | 77 | 1014.6 |
| 20260905010104 | 15 | 0 | 0.0 | 3.2 | 0.00 | 0.20 | 0.20 | 77 | 1014.5 |
| 20260905004611 | 15 | 96 | 0.0 | 3.2 | 0.00 | 0.23 | 0.20 | 78 | 1014.5 |
| 20260905003052 | 15 | 86 | 3.2 | 6.4 | 0.00 | 0.23 | 0.20 | 81 | 1014.5 |
| 20260905001554 | 15 | 94 | 3.2 | 11.3 | 0.00 | 0.23 | 0.20 | 85 | 1014.5 |